VVA4501 TNCC-SVMC

Flight info

Callsign VVA4501
Flight time 0h 41m
Altitude 26000
Route OLITO DCT REPIS DCT CRO DCT MAMON DCT MAU DCT ENTAG DCT EDRAX DCT UKDOV
Aircraft B738/M-SDE2E3FGHIRWXY/LB1

Departure

Time 2026-05-09 05:03
Airport Hato International Airport (TNCC)

Arrival

Time 2026-05-09 05:45
Airport La Chinita International Airport (SVMC)
Time Latitude Longitude Altitude Speed Heading
2026-05-09 04:47 12.18560 -68.95730 42 ft 0 kts 192°
2026-05-09 04:51 12.18561 -68.95730 42 ft 2 kts 192°
2026-05-09 04:51 12.18580 -68.95726 42 ft 3 kts 191°
2026-05-09 04:51 12.18601 -68.95722 40 ft 3 kts 192°
2026-05-09 04:51 12.18620 -68.95717 39 ft 3 kts 196°
2026-05-09 04:52 12.18632 -68.95713 41 ft 1 kts 213°
2026-05-09 04:52 12.18639 -68.95707 39 ft 1 kts 246°
2026-05-09 04:52 12.18641 -68.95699 40 ft 1 kts 272°
2026-05-09 04:52 12.18640 -68.95691 42 ft 1 kts 280°
2026-05-09 04:53 12.18639 -68.95684 42 ft 0 kts 282°
2026-05-09 04:56 12.18641 -68.95691 42 ft 3 kts 288°
2026-05-09 04:57 12.18652 -68.95715 42 ft 4 kts 295°
2026-05-09 04:57 12.18660 -68.95742 41 ft 5 kts 283°
2026-05-09 04:57 12.18670 -68.95783 40 ft 7 kts 284°
2026-05-09 04:57 12.18693 -68.95882 42 ft 22 kts 281°
2026-05-09 04:58 12.18722 -68.96020 42 ft 19 kts 284°
2026-05-09 04:58 12.18749 -68.96153 42 ft 19 kts 282°
2026-05-09 04:58 12.18770 -68.96254 40 ft 13 kts 282°
2026-05-09 04:58 12.18789 -68.96343 42 ft 13 kts 282°
2026-05-09 04:59 12.18806 -68.96431 41 ft 12 kts 281°
2026-05-09 04:59 12.18824 -68.96517 41 ft 12 kts 282°
2026-05-09 04:59 12.18842 -68.96600 38 ft 12 kts 282°
2026-05-09 04:59 12.18859 -68.96681 41 ft 12 kts 281°
2026-05-09 05:00 12.18875 -68.96761 40 ft 11 kts 282°
2026-05-09 05:00 12.18930 -68.96807 40 ft 11 kts 355°
2026-05-09 05:00 12.18969 -68.96804 39 ft 0 kts 10°
2026-05-09 05:01 12.18975 -68.96803 38 ft 2 kts 10°
2026-05-09 05:02 12.19008 -68.96797 38 ft 7 kts 10°
2026-05-09 05:02 12.19060 -68.96772 40 ft 9 kts 72°
2026-05-09 05:02 12.19060 -68.96749 40 ft 0 kts 98°
2026-05-09 05:02 12.19052 -68.96712 41 ft 14 kts 103°
2026-05-09 05:03 12.18982 -68.96416 41 ft 79 kts 102°
2026-05-09 05:03 12.18824 -68.95636 40 ft 143 kts 102°
2026-05-09 05:03 12.18570 -68.94500 314 ft 172 kts 101°
2026-05-09 05:03 12.18298 -68.93418 1453 ft 146 kts 105°
2026-05-09 05:04 12.17978 -68.92383 2062 ft 165 kts 100°
2026-05-09 05:04 12.17820 -68.91154 2645 ft 176 kts 102°
2026-05-09 05:04 12.17478 -68.90056 3861 ft 148 kts 112°
2026-05-09 05:04 12.16771 -68.89144 3927 ft 203 kts 143°
2026-05-09 05:05 12.15257 -68.88500 3641 ft 252 kts 160°
2026-05-09 05:05 12.13615 -68.88050 4499 ft 246 kts 161°
2026-05-09 05:05 12.11933 -68.87583 4996 ft 259 kts 160°
2026-05-09 05:05 12.10151 -68.87052 5511 ft 272 kts 160°
2026-05-09 05:06 12.08348 -68.86487 6448 ft 271 kts 159°
2026-05-09 05:06 12.06534 -68.85895 7171 ft 278 kts 159°
2026-05-09 05:06 12.04700 -68.85279 8052 ft 276 kts 159°
2026-05-09 05:06 12.02861 -68.84649 8835 ft 281 kts 158°
2026-05-09 05:07 12.00995 -68.83999 9585 ft 286 kts 159°
2026-05-09 05:07 11.99099 -68.83335 10327 ft 290 kts 158°
2026-05-09 05:07 11.97121 -68.82637 10568 ft 314 kts 159°
2026-05-09 05:07 11.95008 -68.81888 10718 ft 337 kts 158°
2026-05-09 05:08 11.92720 -68.81077 10850 ft 359 kts 159°
2026-05-09 05:08 11.90317 -68.80229 11195 ft 371 kts 158°
2026-05-09 05:08 11.87855 -68.79361 11708 ft 377 kts 158°
2026-05-09 05:08 11.85363 -68.78482 12286 ft 381 kts 158°
2026-05-09 05:09 11.82842 -68.77591 12836 ft 386 kts 158°
2026-05-09 05:09 11.80264 -68.76768 13368 ft 394 kts 167°
2026-05-09 05:09 11.77505 -68.76743 13894 ft 403 kts 189°
2026-05-09 05:09 11.74866 -68.77739 14440 ft 409 kts 210°
2026-05-09 05:10 11.72735 -68.79603 14930 ft 413 kts 231°
2026-05-09 05:10 11.71317 -68.82139 15487 ft 414 kts 250°
2026-05-09 05:10 11.70334 -68.84911 15952 ft 418 kts 252°
2026-05-09 05:10 11.69394 -68.87723 16492 ft 420 kts 252°
2026-05-09 05:11 11.68459 -68.90552 17046 ft 422 kts 252°
2026-05-09 05:11 11.67512 -68.93396 17560 ft 425 kts 252°
2026-05-09 05:11 11.66544 -68.96264 17965 ft 429 kts 251°
2026-05-09 05:11 11.65563 -68.99136 18534 ft 430 kts 251°
2026-05-09 05:12 11.64567 -69.02026 18853 ft 435 kts 251°
2026-05-09 05:12 11.63569 -69.04908 19257 ft 437 kts 251°
2026-05-09 05:12 11.62552 -69.07838 19660 ft 440 kts 251°
2026-05-09 05:12 11.61527 -69.10787 20036 ft 443 kts 251°
2026-05-09 05:13 11.60495 -69.13756 20417 ft 445 kts 251°
2026-05-09 05:13 11.59457 -69.16741 20791 ft 448 kts 251°
2026-05-09 05:13 11.58413 -69.19744 21159 ft 450 kts 251°
2026-05-09 05:13 11.57363 -69.22763 21511 ft 453 kts 251°
2026-05-09 05:14 11.56307 -69.25799 21851 ft 456 kts 251°
2026-05-09 05:14 11.55244 -69.28854 22161 ft 459 kts 251°
2026-05-09 05:14 11.54189 -69.31885 22457 ft 462 kts 251°
2026-05-09 05:14 11.53111 -69.34982 22767 ft 464 kts 251°
2026-05-09 05:15 11.52028 -69.38090 23090 ft 466 kts 251°
2026-05-09 05:15 11.50941 -69.41209 23403 ft 468 kts 251°
2026-05-09 05:15 11.49846 -69.44350 23650 ft 471 kts 251°
2026-05-09 05:15 11.48749 -69.47497 23926 ft 472 kts 251°
2026-05-09 05:16 11.47646 -69.50656 24221 ft 473 kts 251°
2026-05-09 05:16 11.46544 -69.53814 24515 ft 473 kts 251°
2026-05-09 05:16 11.45439 -69.56979 24780 ft 474 kts 251°
2026-05-09 05:16 11.44333 -69.60147 25043 ft 475 kts 251°
2026-05-09 05:17 11.43241 -69.63272 25379 ft 474 kts 252°
2026-05-09 05:17 11.42135 -69.66436 25668 ft 474 kts 252°
2026-05-09 05:17 11.40998 -69.69593 25897 ft 476 kts 249°
2026-05-09 05:17 11.39557 -69.72653 25950 ft 480 kts 243°
2026-05-09 05:18 11.37956 -69.75656 25960 ft 484 kts 242°
2026-05-09 05:18 11.36308 -69.78655 25967 ft 487 kts 242°
2026-05-09 05:18 11.34647 -69.81681 25960 ft 490 kts 242°
2026-05-09 05:18 11.32994 -69.84728 25959 ft 493 kts 242°
2026-05-09 05:19 11.31369 -69.87761 25952 ft 495 kts 242°
2026-05-09 05:19 11.29725 -69.90852 25952 ft 497 kts 242°
2026-05-09 05:19 11.28082 -69.93957 25946 ft 499 kts 243°
2026-05-09 05:19 11.26431 -69.97077 25943 ft 501 kts 242°
2026-05-09 05:20 11.24779 -70.00197 25941 ft 502 kts 242°
2026-05-09 05:20 11.23116 -70.03334 25936 ft 503 kts 242°
2026-05-09 05:20 11.21453 -70.06467 25944 ft 503 kts 242°
2026-05-09 05:20 11.19788 -70.09602 25938 ft 504 kts 242°
2026-05-09 05:21 11.18116 -70.12743 25935 ft 504 kts 242°
2026-05-09 05:21 11.16440 -70.15871 25935 ft 504 kts 242°
2026-05-09 05:21 11.14759 -70.18997 25933 ft 503 kts 242°
2026-05-09 05:21 11.13076 -70.22121 25930 ft 503 kts 242°
2026-05-09 05:22 11.11419 -70.25199 25936 ft 502 kts 242°
2026-05-09 05:22 11.09739 -70.28318 25927 ft 502 kts 242°
2026-05-09 05:22 11.08065 -70.31431 25927 ft 501 kts 242°
2026-05-09 05:22 11.06391 -70.34541 25931 ft 500 kts 242°
2026-05-09 05:23 11.04720 -70.37647 25937 ft 500 kts 242°
2026-05-09 05:23 11.03055 -70.40742 25932 ft 500 kts 242°
2026-05-09 05:23 11.01382 -70.43850 25924 ft 499 kts 242°
2026-05-09 05:23 10.99713 -70.46950 25931 ft 499 kts 242°
2026-05-09 05:24 10.98046 -70.50045 25932 ft 499 kts 242°
2026-05-09 05:24 10.96379 -70.53139 25929 ft 499 kts 242°
2026-05-09 05:24 10.94710 -70.56236 25922 ft 499 kts 242°
2026-05-09 05:24 10.93064 -70.59290 25924 ft 499 kts 242°
2026-05-09 05:25 10.91393 -70.62388 25926 ft 499 kts 242°
2026-05-09 05:25 10.89723 -70.65485 25919 ft 499 kts 242°
2026-05-09 05:25 10.86381 -70.71676 25920 ft 500 kts 242°
2026-05-09 05:26 10.84707 -70.74777 25915 ft 500 kts 242°
2026-05-09 05:26 10.83034 -70.77876 25909 ft 500 kts 242°
2026-05-09 05:26 10.81351 -70.80991 25163 ft 507 kts 242°
2026-05-09 05:26 10.79657 -70.84126 24320 ft 506 kts 242°
2026-05-09 05:27 10.77993 -70.87206 23601 ft 502 kts 242°
2026-05-09 05:27 10.76315 -70.90309 22763 ft 499 kts 241°
2026-05-09 05:27 10.74650 -70.93387 22008 ft 494 kts 241°
2026-05-09 05:27 10.73005 -70.96429 21287 ft 488 kts 241°
2026-05-09 05:28 10.71384 -70.99434 20600 ft 482 kts 242°
2026-05-09 05:28 10.70073 -71.02542 19866 ft 477 kts 253°
2026-05-09 05:28 10.69339 -71.05793 19232 ft 468 kts 262°
2026-05-09 05:28 10.69100 -71.09092 18528 ft 465 kts 272°
2026-05-09 05:29 10.69360 -71.12238 18511 ft 426 kts 276°
2026-05-09 05:29 10.69626 -71.15080 18683 ft 383 kts 276°
2026-05-09 05:29 10.69859 -71.17694 18421 ft 366 kts 276°
2026-05-09 05:29 10.70085 -71.20300 17372 ft 375 kts 276°
2026-05-09 05:30 10.70308 -71.22950 16190 ft 387 kts 276°
2026-05-09 05:30 10.70534 -71.25704 15050 ft 395 kts 276°
2026-05-09 05:30 10.70761 -71.28500 14271 ft 394 kts 276°
2026-05-09 05:30 10.70981 -71.31258 13650 ft 389 kts 276°
2026-05-09 05:31 10.71199 -71.33980 12998 ft 385 kts 275°
2026-05-09 05:31 10.71418 -71.36722 12400 ft 396 kts 275°
2026-05-09 05:31 10.71648 -71.39588 11751 ft 413 kts 275°
2026-05-09 05:31 10.71878 -71.42468 11199 ft 401 kts 275°
2026-05-09 05:32 10.72093 -71.45167 11044 ft 376 kts 275°
2026-05-09 05:32 10.72194 -71.46442 10956 ft 365 kts 275°
2026-05-09 05:32 10.72394 -71.48957 10793 ft 348 kts 275°
2026-05-09 05:33 10.72583 -71.51330 10912 ft 320 kts 275°
2026-05-09 05:33 10.72753 -71.53482 10897 ft 294 kts 275°
2026-05-09 05:33 10.72913 -71.55487 10762 ft 275 kts 275°
2026-05-09 05:33 10.73061 -71.57364 10656 ft 258 kts 275°
2026-05-09 05:34 10.73093 -71.59130 10439 ft 246 kts 259°
2026-05-09 05:34 10.72551 -71.60700 10263 ft 234 kts 244°
2026-05-09 05:34 10.71902 -71.62202 10117 ft 230 kts 245°
2026-05-09 05:34 10.71254 -71.63698 10042 ft 233 kts 244°
2026-05-09 05:35 10.70589 -71.65211 9762 ft 233 kts 245°
2026-05-09 05:35 10.69828 -71.66658 9518 ft 233 kts 223°
2026-05-09 05:35 10.68488 -71.67486 9307 ft 223 kts 189°
2026-05-09 05:35 10.66993 -71.67431 9084 ft 213 kts 154°
2026-05-09 05:36 10.65867 -71.66556 8928 ft 201 kts 119°
2026-05-09 05:36 10.65526 -71.65252 8920 ft 197 kts 84°
2026-05-09 05:36 10.66036 -71.63937 8688 ft 206 kts 52°
2026-05-09 05:36 10.67044 -71.62923 8471 ft 204 kts 45°
2026-05-09 05:37 10.68087 -71.61969 8220 ft 198 kts 44°
2026-05-09 05:37 10.69094 -71.61060 7973 ft 190 kts 44°
2026-05-09 05:37 10.70158 -71.60291 7704 ft 189 kts 24°
2026-05-09 05:37 10.71410 -71.59905 7495 ft 188 kts 20°
2026-05-09 05:38 10.72665 -71.59527 7263 ft 189 kts 20°
2026-05-09 05:38 10.73926 -71.59146 7026 ft 189 kts 20°
2026-05-09 05:38 10.75179 -71.58798 6786 ft 191 kts 10°
2026-05-09 05:38 10.76510 -71.58978 6562 ft 197 kts 344°
2026-05-09 05:39 10.77712 -71.59689 6335 ft 205 kts 322°
2026-05-09 05:39 10.78613 -71.60827 6103 ft 209 kts 300°
2026-05-09 05:39 10.79045 -71.62240 5784 ft 215 kts 273°
2026-05-09 05:39 10.78591 -71.63718 5043 ft 227 kts 228°
2026-05-09 05:40 10.77292 -71.64531 4462 ft 217 kts 185°
2026-05-09 05:40 10.75856 -71.64704 4178 ft 203 kts 188°
2026-05-09 05:40 10.74530 -71.65079 3936 ft 193 kts 193°
2026-05-09 05:40 10.73303 -71.65514 3672 ft 186 kts 196°
2026-05-09 05:41 10.72137 -71.65977 3456 ft 173 kts 198°
2026-05-09 05:41 10.71039 -71.66433 3215 ft 169 kts 197°
2026-05-09 05:41 10.69952 -71.66889 3023 ft 171 kts 198°
2026-05-09 05:41 10.68840 -71.67359 2762 ft 174 kts 198°
2026-05-09 05:42 10.67725 -71.67832 2538 ft 175 kts 198°
2026-05-09 05:42 10.66606 -71.68308 2303 ft 173 kts 198°
2026-05-09 05:42 10.65501 -71.68777 2071 ft 174 kts 200°
2026-05-09 05:42 10.64365 -71.69259 1833 ft 179 kts 199°
2026-05-09 05:43 10.63244 -71.69736 1607 ft 176 kts 200°
2026-05-09 05:43 10.62123 -71.70213 1365 ft 174 kts 201°
2026-05-09 05:43 10.61035 -71.70694 1158 ft 168 kts 202°
2026-05-09 05:43 10.59984 -71.71170 932 ft 161 kts 199°
2026-05-09 05:44 10.58960 -71.71586 719 ft 157 kts 198°
2026-05-09 05:44 10.57932 -71.71983 486 ft 157 kts 203°
2026-05-09 05:44 10.56945 -71.72403 243 ft 148 kts 203°
2026-05-09 05:44 10.56121 -71.72764 221 ft 100 kts 202°
2026-05-09 05:45 10.55688 -71.72949 224 ft 37 kts 201°
2026-05-09 05:45 10.55619 -71.72977 223 ft 0 kts 203°
2026-05-09 05:45 10.55608 -71.72982 224 ft 3 kts 203°
2026-05-09 05:45 10.55584 -71.72992 222 ft 4 kts 203°
2026-05-09 05:46 10.55540 -71.73011 223 ft 12 kts 202°
2026-05-09 05:46 10.55456 -71.73046 223 ft 13 kts 203°
2026-05-09 05:46 10.55374 -71.73082 223 ft 13 kts 203°
2026-05-09 05:46 10.55294 -71.73117 222 ft 12 kts 203°
2026-05-09 05:47 10.55237 -71.73125 221 ft 0 kts 147°
2026-05-09 05:47 10.55237 -71.73123 221 ft 1 kts 116°
2026-05-09 05:47 10.55246 -71.73104 221 ft 6 kts 60°
2026-05-09 05:47 10.55272 -71.73063 221 ft 7 kts 57°
2026-05-09 05:48 10.55301 -71.73023 220 ft 7 kts 51°
2026-05-09 05:48 10.55332 -71.72984 219 ft 7 kts 50°
2026-05-09 05:48 10.55365 -71.72943 218 ft 7 kts 54°
2026-05-09 05:48 10.55392 -71.72898 223 ft 7 kts 54°
2026-05-09 05:49 10.55426 -71.72862 225 ft 7 kts 37°
2026-05-09 05:49 10.55475 -71.72838 225 ft 11 kts 22°
2026-05-09 05:49 10.55548 -71.72806 220 ft 12 kts 24°
2026-05-09 05:49 10.55622 -71.72777 222 ft 11 kts 19°
2026-05-09 05:50 10.55689 -71.72740 220 ft 11 kts 50°
2026-05-09 05:50 10.55693 -71.72668 215 ft 11 kts 108°
2026-05-09 05:50 10.55665 -71.72600 219 ft 10 kts 114°
2026-05-09 05:50 10.55669 -71.72535 224 ft 10 kts 43°
2026-05-09 05:51 10.55727 -71.72504 218 ft 9 kts 42°
2026-05-09 05:51 10.55732 -71.72498 222 ft 0 kts 56°
2026-05-09 05:51 10.55733 -71.72497 222 ft 1 kts 58°
2026-05-09 05:51 10.55730 -71.72479 218 ft 4 kts 114°
2026-05-09 05:52 10.55707 -71.72448 221 ft 6 kts 129°
2026-05-09 05:52 10.55702 -71.72442 218 ft 0 kts 129°